CZ-6A DEB, 60810

Orbit data source: Space-Track

CZ-6A DEB, 60810 is space debris in LEO originally from a launch on Tue, 06 Aug 2024 UTC launched from the Taiyaun Space Center, China (TSC). Debris objects in space refer to the collection of defunct objects orbiting the Earth. Examples of debris include non-operational satellites, rocket bodies, and fragments generated from explosions, collisions, or faulty payload assembly.

Loading next visibility...
Identifier
60810, 2024-140GM
Orbit
LEO
Country
Flag of CNCN / PRC
Related business
Manufacturer
SAST
Mission
Spacecraft
Bus & Motor
Unknown
Mass
Unknown
Launch date (UTC)
2024-08-06 (1 year ago)
Launch vehicle
Unknown
Launch site
Taiyaun Space Center, China (TSC)
Object type
Payload
Rocket body
Debris
Shape & HBR
Unknown shape, 0.1 m
Radar Cross Section
Small (<0.1 m²)

Expand to show TLE details & history
Last TLE update: 1 day ago

TLE from 1 day ago
0 CZ-6A DEB
1 60810U 24140GM  25312.73740759  .00001171  00000-0  68407-3 0  9999
2 60810  89.3780 320.8859 0119031 225.7149 133.4222 14.04363513 63705
Epoch: 2025-11-08T17:41Z
TLE epoch observation values (Epoch: 2025-11-08T17:41:52.015Z)
Latitude
-0.00002°
Longitude
7.25645°
Altitude
941.678 km
Speed
7.35 km/s
True Right ascension
21h 23m 32s
True Declination
0° 00' 00"
Sunlit
Object was in daylight at epoch
Visualization orbit readout
Latitude
Unknown
Longitude
Unknown
Altitude
Unknown
Speed
Unknown
Apparent Right ascension
Unknown
Apparent Declination
Unknown
Sunlit
N/A
Visualization observer readout
Local Sidereal Time
19:42:45
Azimuth
Unknown
Elevation
Unknown
Doppler factor
Unknown
Orbital elements
Apogee altitude
962.039 km
Perigee altitude
789.352 km
Semi-major axis
7,253.833 km
Eccentricity
0.0119
Inclination
89.378°
RAAN
320.8859°
Arg. of periapsis
225.7149°
True anomaly
134.4028°
Mean anomaly
133.4222°
Eccentric anomaly
133.9135°
Mean motion
3.51311 °/min
Orbital period
102.47 mins
BSTAR
0.00068407
Loading maneuver chart data...
Computing Atmospheric mass density...

Documentation

Showing up to 5 results
|